�N����,����,�~����,�C��,���x,�C��,����,���ϕ���,�ő�u�ԕ���,�ő厞����,���˗�,�I�_���x,�n�����x,�ő啗���N��,DTYPE
"23/06/29","00:10",0.0,22.7,94.0,1003.6,273.7,0.6,1.0,264.4,0.00,21.7,22.9,"00:04:56",1
"23/06/29","00:20",0.0,22.6,94.2,1003.1,287.0,0.8,1.4,329.6,0.00,21.7,22.7,"00:19:44",1
"23/06/29","00:30",0.0,22.7,94.2,1003.4,302.6,1.1,1.8,337.9,0.00,21.8,23.1,"00:22:08",1
"23/06/29","00:40",0.4,22.7,94.2,1003.1,278.9,0.5,1.1,318.6,0.00,21.8,22.7,"00:30:16",1
"23/06/29","00:50",0.2,22.8,94.3,1003.6,318.7,1.1,1.9,327.6,0.00,21.9,22.7,"00:44:00",1
"23/06/29","01:00",0.0,22.9,94.4,1003.6,312.0,1.2,2.0,304.3,0.00,22.0,22.8,"00:59:04",1
"23/06/29","01:10",1.6,22.9,94.5,1003.6,345.7,0.7,2.4,343.3,0.00,22.0,22.7,"01:01:44",1
"23/06/29","01:20",1.0,22.8,94.5,1003.1,249.7,0.3,1.2,338.7,0.00,21.9,22.7,"01:10:08",1
"23/06/29","01:30",0.2,22.8,94.6,1002.9,189.8,0.2,0.9,191.6,0.00,21.9,22.7,"01:24:24",1
"23/06/29","01:40",0.0,22.9,94.8,1002.9,301.8,0.7,1.7,318.8,0.00,22.1,22.7,"01:39:52",1
"23/06/29","01:50",1.4,22.8,94.8,1002.9,323.0,1.0,1.8,311.8,0.00,22.0,22.7,"01:42:16",1
"23/06/29","02:00",2.0,22.7,94.9,1002.6,292.4,0.5,0.9,349.0,0.00,21.9,22.7,"01:50:24",1
"23/06/29","02:10",0.6,22.6,94.9,1002.4,278.4,0.3,0.8,310.2,0.00,21.8,22.8,"02:01:20",1
"23/06/29","02:20",0.0,22.6,95.0,1002.9,264.9,0.3,0.8,313.2,0.00,21.8,22.7,"02:13:52",1
"23/06/29","02:30",0.0,22.6,95.1,1002.4,297.6,0.3,0.9,336.1,0.00,21.8,22.7,"02:29:20",1
"23/06/29","02:40",0.0,22.6,95.1,1002.4,333.2,0.7,1.0,342.3,0.00,21.8,22.7,"02:33:36",1
"23/06/29","02:50",0.0,22.7,95.2,1002.4,331.4,0.5,1.0,1.7,0.00,21.9,22.7,"02:40:32",1
"23/06/29","03:00",0.2,22.6,95.2,1002.2,259.7,0.5,1.0,251.8,0.00,21.8,22.8,"02:52:24",1
"23/06/29","03:10",0.0,22.6,95.3,1002.4,280.4,0.6,1.2,334.6,0.00,21.8,22.8,"03:00:16",1
"23/06/29","03:20",0.0,22.7,95.4,1002.4,294.7,0.6,1.1,293.0,0.00,22.0,22.5,"03:13:12",1
"23/06/29","03:30",0.0,22.7,95.4,1002.2,309.9,0.5,1.2,332.0,0.00,22.0,22.6,"03:28:40",1
"23/06/29","03:40",0.0,22.6,95.5,1002.2,336.0,0.5,1.9,337.0,0.00,21.9,22.6,"03:31:04",1
"23/06/29","03:50",0.0,22.6,95.5,1002.2,261.6,0.5,1.1,267.1,0.00,21.9,22.7,"03:41:04",1
"23/06/29","04:00",0.0,22.6,95.5,1001.9,300.8,0.6,1.1,323.6,0.00,21.9,22.5,"03:58:24",1
"23/06/29","04:10",0.0,22.6,95.6,1002.4,330.6,0.7,1.3,325.6,0.00,21.9,22.7,"04:06:32",1
"23/06/29","04:20",0.0,22.6,95.7,1001.9,338.3,0.5,1.1,335.4,0.00,21.9,22.5,"04:15:28",1
"23/06/29","04:30",0.0,22.7,95.7,1001.9,283.6,0.7,1.1,242.3,0.00,22.0,22.5,"04:26:00",1
"23/06/29","04:40",0.0,22.7,95.8,1001.9,303.3,0.8,1.7,356.0,0.00,22.0,22.7,"04:39:20",1
"23/06/29","04:50",0.0,22.5,95.8,1002.2,291.7,0.3,1.1,330.3,0.00,21.8,22.7,"04:42:08",1
"23/06/29","05:00",0.0,22.5,95.9,1002.2,297.3,0.6,1.0,332.8,0.00,21.9,22.6,"04:54:40",1
"23/06/29","05:10",0.0,22.5,95.9,1002.4,265.2,0.6,1.0,261.9,0.00,21.9,22.6,"05:02:08",1
"23/06/29","05:20",0.0,22.5,95.9,1002.4,308.5,0.5,0.9,339.4,0.00,21.9,22.5,"05:15:36",1
"23/06/29","05:30",0.0,22.5,96.0,1002.4,3.5,0.3,1.0,350.4,0.00,21.9,22.6,"05:28:40",1
"23/06/29","05:40",0.0,22.5,96.0,1002.4,105.9,0.2,0.6,75.0,0.00,21.9,22.6,"05:30:16",1
"23/06/29","05:50",0.0,22.6,96.1,1002.6,242.1,0.5,1.0,239.1,0.00,22.0,22.5,"05:47:04",1
"23/06/29","06:00",0.0,22.6,96.1,1002.9,300.7,0.3,1.1,340.1,0.00,22.0,22.5,"05:59:20",1
"23/06/29","06:10",0.0,22.8,96.1,1002.6,358.3,0.8,1.9,22.7,0.00,22.2,22.7,"06:04:00",1
"23/06/29","06:20",0.0,22.7,96.2,1002.9,274.3,0.3,1.0,254.6,0.01,22.1,22.7,"06:14:16",1
"23/06/29","06:30",0.0,22.9,96.2,1002.6,301.6,0.3,1.1,345.0,0.02,22.3,22.5,"06:29:44",1
"23/06/29","06:40",0.0,23.0,96.2,1002.9,359.5,0.6,1.6,346.0,0.02,22.4,22.6,"06:35:28",1
"23/06/29","06:50",0.0,23.0,96.2,1002.9,327.3,0.5,1.2,344.2,0.02,22.4,22.7,"06:46:08",1
"23/06/29","07:00",0.0,23.2,96.3,1002.9,165.5,0.2,0.6,302.7,0.02,22.6,22.5,"06:55:44",1
"23/06/29","07:10",0.0,23.4,96.3,1002.9,152.1,0.3,1.1,216.4,0.03,22.8,22.5,"07:07:36",1
"23/06/29","07:20",0.0,23.7,96.2,1003.4,204.4,0.2,0.8,166.6,0.01,23.1,22.5,"07:11:20",1
"23/06/29","07:30",0.0,23.7,96.2,1003.1,334.7,0.6,1.4,333.8,0.01,23.1,22.4,"07:22:32",1
"23/06/29","07:40",0.0,23.8,96.2,1003.4,234.2,0.5,1.0,242.1,0.02,23.2,22.6,"07:39:44",1
"23/06/29","07:50",0.0,23.9,96.2,1003.1,267.1,0.5,1.2,240.5,0.03,23.3,22.5,"07:42:00",1
"23/06/29","08:00",0.0,24.0,96.3,1003.4,322.7,0.6,1.3,338.3,0.05,23.4,22.4,"07:57:28",1
"23/06/29","08:10",0.0,24.2,96.3,1003.6,325.2,0.8,1.4,345.8,0.08,23.6,22.6,"08:02:56",1
"23/06/29","08:20",0.0,24.4,96.2,1003.6,324.6,0.8,1.7,343.0,0.06,23.8,22.4,"08:17:04",1
"23/06/29","08:30",0.0,24.6,96.2,1003.4,313.4,0.7,1.2,317.9,0.09,24.0,22.5,"08:24:08",1
"23/06/29","08:40",0.0,24.9,96.3,1003.4,301.1,0.6,1.2,315.0,0.14,24.3,22.4,"08:31:36",1
"23/06/29","08:50",0.0,25.4,96.2,1003.1,208.0,0.3,0.9,240.3,0.22,24.8,22.5,"08:44:08",1
"23/06/29","09:00",0.0,26.0,96.2,1002.9,151.3,0.3,1.3,96.9,0.27,25.4,22.6,"08:58:56",1
"23/06/29","09:10",0.0,26.8,95.7,1002.4,12.3,0.3,1.7,53.2,0.35,26.1,22.5,"09:09:44",1
"23/06/29","09:20",0.0,26.8,95.4,1002.2,140.6,0.7,1.8,17.7,0.34,26.0,22.3,"09:10:56",1
"23/06/29","09:30",0.0,27.0,95.1,1001.9,187.3,0.8,2.9,233.4,0.34,26.2,22.7,"09:25:04",1
"23/06/29","09:40",0.0,26.3,94.2,1002.6,238.0,1.6,5.2,215.2,0.27,25.3,22.4,"09:31:12",1
"23/06/29","09:50",0.0,26.5,93.0,1003.1,200.0,1.5,2.7,202.6,0.28,25.3,22.5,"09:46:16",1
"23/06/29","10:00",0.0,27.1,91.1,1003.4,206.2,1.2,3.2,241.0,0.29,25.6,22.6,"09:58:40",1
"23/06/29","10:10",0.0,28.8,89.5,1003.4,170.8,0.7,2.0,231.2,0.37,26.9,22.7,"10:00:16",1
"23/06/29","10:20",0.0,28.9,83.5,1004.1,285.4,0.8,2.6,343.4,0.31,25.9,22.6,"10:12:00",1
"23/06/29","10:30",0.0,29.5,78.5,1003.6,232.7,1.6,4.5,229.9,0.37,25.4,22.6,"10:29:36",1
"23/06/29","10:40",0.0,29.0,76.5,1003.4,202.6,2.1,4.2,217.0,0.25,24.5,22.8,"10:32:08",1
"23/06/29","10:50",0.0,29.4,75.8,1003.4,224.9,1.5,3.9,245.9,0.44,24.7,22.7,"10:47:52",1
"23/06/29","11:00",0.0,29.9,74.4,1003.4,219.6,2.2,4.2,238.9,0.50,24.9,22.9,"10:57:36",1
"23/06/29","11:10",0.0,30.1,73.1,1003.6,229.9,2.0,4.0,201.9,0.53,24.8,22.7,"11:02:08",1
"23/06/29","11:20",0.0,30.6,71.7,1003.6,245.7,1.7,4.4,232.8,0.51,24.9,22.9,"11:10:48",1
"23/06/29","11:30",0.0,30.7,70.4,1003.4,246.7,1.6,5.1,220.9,0.47,24.7,23.0,"11:24:48",1
"23/06/29","11:40",0.0,31.0,70.0,1003.1,244.6,1.6,4.7,226.8,0.42,24.9,23.0,"11:30:24",1
"23/06/29","11:50",0.0,30.8,69.2,1003.1,334.6,2.0,5.0,350.6,0.36,24.5,22.8,"11:42:48",1
"23/06/29","12:00",0.0,31.5,68.1,1002.9,309.5,1.8,3.4,31.1,0.54,24.9,22.8,"11:53:20",1
"23/06/29","12:10",0.0,31.6,67.9,1002.9,225.6,2.1,4.4,344.9,0.47,25.0,23.2,"12:04:16",1
"23/06/29","12:20",0.0,31.8,66.4,1002.9,233.9,1.3,3.5,204.6,0.42,24.8,23.0,"12:10:24",1
"23/06/29","12:30",0.0,31.7,64.9,1003.1,236.3,2.0,5.0,202.9,0.49,24.3,23.2,"12:24:56",1
"23/06/29","12:40",0.0,31.9,64.9,1002.9,240.3,2.2,5.5,228.0,0.58,24.5,23.0,"12:33:36",1
"23/06/29","12:50",0.0,32.1,65.2,1002.9,233.0,2.5,6.8,231.9,0.56,24.8,23.0,"12:46:08",1
"23/06/29","13:00",0.0,32.6,62.3,1002.9,237.5,2.0,4.5,226.7,0.60,24.5,23.1,"12:57:12",1
"23/06/29","13:10",0.0,32.8,61.0,1002.6,246.5,1.7,3.5,239.5,0.57,24.3,23.2,"13:06:24",1
"23/06/29","13:20",0.0,33.1,59.4,1002.6,332.6,1.7,3.7,336.5,0.54,24.2,23.5,"13:15:04",1
"23/06/29","13:30",0.0,32.8,60.3,1002.2,276.4,2.0,4.4,214.7,0.50,24.1,23.3,"13:25:04",1
"23/06/29","13:40",0.0,32.6,60.1,1002.2,291.5,1.7,3.7,354.0,0.39,23.9,23.3,"13:30:48",1
"23/06/29","13:50",0.0,32.7,60.4,1002.2,224.7,2.7,5.7,208.3,0.49,24.1,23.3,"13:46:56",1
"23/06/29","14:00",0.0,32.4,60.5,1002.2,229.3,1.6,4.4,234.1,0.24,23.8,23.5,"13:50:40",1
"23/06/29","14:10",0.0,32.1,60.8,1001.9,281.1,1.2,2.5,276.8,0.19,23.6,23.6,"14:00:24",1
"23/06/29","14:20",0.0,31.9,61.0,1001.5,293.5,1.3,3.5,336.0,0.16,23.5,23.5,"14:12:56",1
"23/06/29","14:30",0.0,32.0,62.3,1000.8,240.9,1.5,4.5,228.4,0.24,23.9,23.7,"14:22:56",1
"23/06/29","14:40",0.0,32.9,59.8,1001.5,278.1,1.6,3.7,238.3,0.55,24.1,23.5,"14:39:20",1
"23/06/29","14:50",0.0,32.8,59.3,1001.0,226.3,1.3,3.5,207.2,0.29,23.9,23.5,"14:41:20",1
"23/06/29","15:00",0.0,33.2,58.6,1001.5,286.6,1.3,3.6,216.2,0.39,24.0,23.5,"14:52:08",1
"23/06/29","15:10",0.0,32.7,59.4,1001.0,273.5,1.2,3.5,238.3,0.23,23.8,23.8,"15:08:56",1
"23/06/29","15:20",0.0,32.4,59.0,1000.8,224.6,1.8,4.3,231.2,0.24,23.4,23.8,"15:13:28",1
"23/06/29","15:30",0.0,32.5,61.0,1000.8,249.2,1.3,3.2,216.8,0.17,24.0,23.8,"15:26:48",1
"23/06/29","15:40",0.0,32.8,59.5,1001.0,249.2,1.6,3.4,239.7,0.26,23.9,23.6,"15:31:28",1
"23/06/29","15:50",0.0,33.0,61.0,1001.0,256.1,1.6,3.9,236.9,0.30,24.5,23.8,"15:44:08",1
"23/06/29","16:00",0.0,33.2,60.0,1001.0,256.6,1.2,4.0,240.1,0.28,24.4,23.8,"15:59:28",1
"23/06/29","16:10",0.0,32.7,58.8,1000.8,262.0,1.6,3.7,239.2,0.18,23.6,23.7,"16:09:44",1
"23/06/29","16:20",0.0,32.5,59.5,1001.0,242.3,1.6,3.6,244.2,0.18,23.6,23.9,"16:17:44",1
"23/06/29","16:30",0.0,32.5,60.6,1000.5,249.8,1.5,3.6,227.6,0.18,23.9,24.0,"16:21:12",1
"23/06/29","16:40",0.0,32.4,59.9,1000.8,291.2,1.3,2.6,349.2,0.22,23.6,23.8,"16:36:40",1
"23/06/29","16:50",0.0,32.6,61.3,1001.0,276.3,1.5,3.5,240.3,0.24,24.2,23.8,"16:43:44",1
"23/06/29","17:00",0.0,32.8,60.9,1001.0,323.1,1.3,2.9,7.7,0.23,24.3,24.0,"16:50:24",1
"23/06/29","17:10",0.0,32.2,60.9,1000.8,231.8,2.0,4.2,207.4,0.10,23.7,24.0,"17:02:24",1
"23/06/29","17:20",0.0,31.6,63.0,1000.8,240.2,1.8,4.0,228.7,0.07,23.7,24.2,"17:11:04",1
"23/06/29","17:30",0.0,31.4,64.5,1000.3,255.4,1.5,4.5,235.7,0.04,23.9,24.0,"17:21:36",1
"23/06/29","17:40",0.0,31.1,65.7,1000.0,246.4,1.6,3.6,232.5,0.03,24.0,23.9,"17:39:36",1
"23/06/29","17:50",0.0,30.7,66.9,1000.0,249.2,1.8,5.7,234.5,0.01,23.9,24.1,"17:43:36",1
"23/06/29","18:00",0.0,30.4,68.0,999.6,264.4,1.1,3.2,237.4,0.00,23.9,24.0,"17:51:36",1
"23/06/29","18:10",0.0,30.2,68.7,999.6,289.1,1.6,4.4,243.6,0.00,23.8,24.2,"18:02:40",1
"23/06/29","18:20",0.0,30.0,69.6,1000.0,308.7,1.7,3.9,341.3,0.00,23.9,24.0,"18:11:12",1
"23/06/29","18:30",0.0,29.6,69.7,999.6,320.5,1.6,3.4,332.5,0.00,23.5,24.0,"18:27:44",1
"23/06/29","18:40",0.0,29.6,69.5,999.6,316.8,1.6,3.6,306.9,0.00,23.5,24.2,"18:30:02",1
"23/06/29","18:50",0.0,29.4,69.6,1000.0,305.6,1.5,3.3,358.8,0.00,23.3,24.0,"18:40:24",1
"23/06/29","19:00",0.0,29.1,70.3,1000.3,317.3,1.3,2.9,332.9,0.00,23.2,24.2,"18:54:48",1
"23/06/29","19:10",0.0,28.7,72.7,1000.8,275.8,1.3,2.8,313.2,0.00,23.4,24.1,"19:02:16",1
"23/06/29","19:20",0.2,27.9,75.9,1001.0,315.5,1.2,3.1,330.1,0.00,23.3,24.0,"19:16:08",1
"23/06/29","19:30",0.0,27.3,78.4,1000.8,293.1,0.8,1.7,226.2,0.00,23.3,23.9,"19:26:40",1
"23/06/29","19:40",0.6,26.9,80.8,1001.0,15.2,0.7,1.9,346.3,0.00,23.4,23.7,"19:31:06",1
"23/06/29","19:50",0.4,26.6,83.6,1001.5,289.2,1.0,2.4,344.4,0.00,23.6,24.0,"19:48:56",1
"23/06/29","20:00",1.0,26.0,85.6,1001.2,333.4,1.1,2.0,334.0,0.00,23.4,23.9,"19:55:44",1
"23/06/29","20:10",0.0,25.7,87.1,1001.5,295.6,0.7,1.1,314.9,0.00,23.4,23.8,"20:01:04",1
"23/06/29","20:20",0.0,25.5,88.3,1001.5,316.4,1.0,1.8,301.9,0.00,23.5,23.9,"20:14:32",1
"23/06/29","20:30",0.0,25.2,89.3,1001.7,311.0,1.2,2.2,338.0,0.00,23.4,23.9,"20:24:00",1
"23/06/29","20:40",0.0,24.9,90.1,1001.9,338.1,1.5,3.1,345.5,0.00,23.2,23.8,"20:30:02",1
"23/06/29","20:50",0.0,24.8,90.7,1001.7,342.9,1.6,3.1,344.7,0.00,23.2,24.0,"20:46:24",1
"23/06/29","21:00",0.2,24.8,91.0,1001.7,9.6,0.7,1.9,344.5,0.00,23.3,23.7,"20:51:28",1
"23/06/29","21:10",0.0,24.7,91.4,1001.5,235.1,1.0,1.4,197.4,0.00,23.2,23.7,"21:01:36",1
"23/06/29","21:20",0.0,24.6,91.8,1001.9,315.2,0.7,1.3,315.2,0.00,23.2,24.0,"21:10:48",1
"23/06/29","21:30",0.0,24.7,91.9,1002.2,357.3,0.7,2.1,332.0,0.00,23.3,23.7,"21:21:44",1
"23/06/29","21:40",0.0,24.5,92.1,1001.7,57.7,0.2,1.0,123.9,0.00,23.2,23.7,"21:33:12",1
"23/06/29","21:50",0.0,24.6,92.4,1001.9,320.6,0.8,1.7,329.7,0.00,23.3,23.8,"21:45:44",1
"23/06/29","22:00",0.0,24.5,92.7,1002.2,341.2,0.7,1.6,355.4,0.00,23.3,23.6,"21:56:56",1
"23/06/29","22:10",0.0,24.4,92.9,1002.2,308.4,1.0,1.4,313.1,0.00,23.2,23.9,"22:06:00",1
"23/06/29","22:20",0.0,24.3,93.1,1002.4,318.1,1.0,3.2,347.5,0.00,23.2,23.8,"22:19:12",1
"23/06/29","22:30",0.0,24.2,93.3,1002.2,326.7,1.2,2.6,329.7,0.00,23.1,23.6,"22:29:28",1
"23/06/29","22:40",0.0,24.1,93.5,1002.6,332.3,1.7,3.2,344.4,0.00,23.0,23.6,"22:35:52",1
"23/06/29","22:50",0.0,24.1,93.7,1002.4,325.0,1.6,2.5,321.2,0.00,23.1,23.5,"22:49:04",1
"23/06/29","23:00",0.2,24.1,93.8,1002.6,330.0,1.5,2.9,344.8,0.00,23.1,23.8,"22:52:24",1
"23/06/29","23:10",0.2,24.0,93.9,1002.6,304.5,0.8,1.4,331.2,0.00,23.0,23.6,"23:05:04",1
"23/06/29","23:20",0.0,24.1,94.0,1002.4,302.5,0.7,1.4,344.3,0.00,23.1,23.4,"23:18:56",1
"23/06/29","23:30",0.0,24.1,94.2,1002.2,333.2,1.6,2.7,324.4,0.00,23.1,23.6,"23:25:12",1
"23/06/29","23:40",0.0,24.1,94.2,1002.4,336.2,1.1,1.9,333.5,0.00,23.1,23.5,"23:39:52",1
"23/06/29","23:50",0.0,24.0,94.3,1002.4,343.2,0.5,1.6,346.0,0.00,23.1,23.6,"23:48:40",1
"23/06/29","24:00",0.0,24.0,94.4,1002.4,329.7,1.0,1.8,334.0,0.00,23.1,23.5,"23:55:36",1
